Regional Weather Roundup
Issued by NWS Sterling, VA

Current Version | Previous Version | Text Only | Print | Product List | Glossary On
Versions: 1 2 3 4 5 6 7 8 9 10 11 12 13 14 15 16 17 18 19 20 21 22 23 24 25 26 27 28 29 30 31 32 33 34 35 36 37 38 39 40 41 42 43 44 45 46 47 48 49 50
000
ASUS41 KLWX 151611
RWRLWX

REGIONAL WEATHER ROUNDUP
NATIONAL WEATHER SERVICE BALTIMORE MD/WASHINGTON DC
1100 AM EST FRI DEC 15 2017

Note: "FAIR" indicates few or no clouds below 12,000 feet
with no significant weather and/or obstructions to visibility.
 TC=TEMPERATURE CELSIUS

 * =Non NWS site. Station does not report precipitation (e.g. rain,
    snow, etc.), thunder, or fog.

DCZ001-MDZ009-015-VAZ040>042-051-053>054-151700-
WASHINGTON METRO

CITY           SKY/WX    TMP DP  RH WIND       PRES   REMARKS
WASHINGTON NAT CLOUDY    31  13  47 E5        30.06F
DULLES         CLOUDY    29  15  56 E6        30.04F
ANDREWS AFB    CLOUDY    29  13  51 CALM      30.03F
FT BELVOIR     CLOUDY    30  11  45 CALM      30.05F
COLLEGE PARK*  CLOUDY    29  12  48 CALM      30.06F
LEESBURG*      CLOUDY    30  19  64 CALM      30.05F
MANASSAS*      CLOUDY    30  16  56 SE3       30.05F
GAITHERSBURG*  CLOUDY    27  13  55 VRB3      30.04F

$$

MDZ006>007-011-014-151700-
BALTIMORE METRO

CITY           SKY/WX    TMP DP  RH WIND       PRES   REMARKS
BWI AIRPORT    CLOUDY    29  13  51 E5        30.06F
MD SCIENCE CTR   N/A     30  12  47 MISG      30.07F
MARTIN STATE   CLOUDY    30  16  55 NE5       30.09F
ANNAPOLIS      CLOUDY    30  19  63 NE3       30.06F
FORT MEADE*    CLOUDY    30  14  51 SE6       30.09F

$$

MDZ012-015-019>023-151700-
MARYLAND EASTERN SHORE

CITY           SKY/WX    TMP DP  RH WIND       PRES   REMARKS
OCEAN CITY     CLOUDY    39  29  67 E7        30.03F
SALISBURY      CLOUDY    35  24  64 NE6       30.03F
BAY BRIDGE AP* CLOUDY    30  14  51 MISG      30.07F
CAMBRIDGE*     CLOUDY    32  18  55 NE6       30.05F
EASTON*        PTSUNNY   30  16  55 E7        30.08F

$$

MDZ017>025-151700-
SOUTHERN MARYLAND

CITY           SKY/WX    TMP DP  RH WIND       PRES   REMARKS
PATUXENT RIVER CLOUDY    33  21  61 NE8       30.03F WCI  26
ST INIGOES     CLOUDY    33  22  63 NE7       30.02F
LEONARDTOWN*   CLOUDY    32  19  59 CALM      30.05F

$$

MDZ003>005-151700-
NORTH CENTRAL MARYLAND

CITY           SKY/WX    TMP DP  RH WIND       PRES   REMARKS
FREDERICK*     LGT SNOW  28  14  54 CALM      30.08F
HAGERSTOWN APT CLOUDY    28  13  53 S9        30.01F WCI  19
WESTMINSTER*   LGT SNOW  27  19  74 SE6       30.02F

$$

MDZ501>502-151700-
WESTERN MARYLAND

CITY           SKY/WX    TMP DP  RH WIND       PRES   REMARKS
OAKLAND*       CLOUDY    21  19  93 SW5       29.81F
CUMBERLAND*    CLOUDY    28  16  59 CALM      30.04F

$$

VAZ025>031-151700-
SHENANDOAH VALLEY

CITY           SKY/WX    TMP DP  RH WIND       PRES   REMARKS
WINCHESTER*    CLOUDY    28  14  54 S6        30.00F
FRONT ROYAL*   CLOUDY    30  18  59 MISG      30.00F
LURAY*         CLOUDY    30  21  69 CALM      29.99S
NEW MARKET*    CLOUDY    28  15  59 CALM      29.98F
STAUNTON*      CLOUDY    29  18  62 S6        29.98F
WAYNESBORO*    CLOUDY    28  19  70 SE3       29.96F

$$

WVZ021-048>050-054>055-151700-
EASTERN WEST VIRGINIA PANHANDLE

CITY           SKY/WX    TMP DP  RH WIND       PRES   REMARKS
MARTINSBURG    CLOUDY    27  13  55 SE6       30.01F
PETERSBURG*    FLURRIES  25  19  75 CALM      29.99F

$$

VAZ036>039-050-151700-
CENTRAL FOOTHILLS

CITY           SKY/WX    TMP DP  RH WIND       PRES   REMARKS
CHARLOTTESVILL MIX PCPN  31  16  54 CALM      30.01F
CULPEPER*      CLOUDY    31  16  52 CALM      30.05F
ORANGE*        CLOUDY    30  18  59 CALM      30.03F
GORDONSVILLE*  CLOUDY    30  16  56 CALM      30.02F
WARRENTON*     CLOUDY    32  14  48 N3        30.03F

$$

VAZ055>057-151700-
NORTH AND CENTRAL PIEDMONT

CITY           SKY/WX    TMP DP  RH WIND       PRES   REMARKS
FREDERICKSBRG* CLOUDY    32  20  61 N3        30.03F
STAFFORD*      CLOUDY    31  17  56 NE3       30.07F

$$

NCZ024-NYZ072-PAZ021-071-VAZ022-071-151700-
OTHER REGIONAL OBSERVATIONS

CITY           SKY/WX    TMP DP  RH WIND       PRES   REMARKS
NEW YORK CITY  CLOUDY    25  11  55 CALM      30.10F
PHILADELPHIA   CLOUDY    28  10  46 SE3       30.09F
PITTSBURGH     PTSUNNY   23  14  68 W7        29.94S
ROANOKE        CLOUDY    32  18  56 VRB3      30.00F
RICHMOND       CLOUDY    38  20  48 N8        30.00F
RALEIGH        PTSUNNY   38  25  59 N5        29.99F

$$

ANZ530>537-151700-
MARINE OBSERVATIONS

STATION/POSITION TIME  TEMP    WIND        PRES
                       AIR SEA DIR/SP/G
                 (UTC) (F)     (DEG/KT/KT) (MB)
THOMAS PT LIGHT  1600   30 43   50/  6/  7   N/A
BALT KEY BRIDGE  1536   29      60/  6/  8 1018.7F
COVE POINT       1536   31      60/  7/  9 1018.4F
LEWISETTA        1542   34 40   40/  6/  9 1017.2F
SOLOMONS ISLAND  1536   32 45   60/  5/  7 1017.5F
PINEY POINT      1548           60/  5/  8   N/A

$$




USA.gov is the U.S. government's official web portal to all federal, state and local government web resources and services.